Weather History for Sioux Falls, SD

Change the Weather History Date:

Tuesday, September 9, 2014

  Actual Average Record
Temperature  
Mean Temperature 68 °F 64 °F  
Max Temperature 75 °F 76 °F 101 °F (1904)
Min Temperature 60 °F 53 °F 34 °F (1898)
Degree Days  
Heating Degree Days 0 4  
Month to date heating degree days 13 24  
Since 1 July heating degree days 31 55  
Cooling Degree Days 3 3  
Month to date cooling degree days 22 32  
Year to date cooling degree days 573 657  
Growing Degree Days 18 (Base 50)    
Moisture  
Dew Point 64 °F    
Average Humidity 91    
Maximum Humidity 100    
Minimum Humidity 82    
Precipitation  
Precipitation 1.23 in 0.09 in 2.73 in (1982)
Month to date precipitation 1.43 0.87  
Year to date precipitation 25.86 20.26  
Snow  
Snow 0.00 in 0.00 in 0.00 in ()
Month to date snowfall 0.0 0.0  
Since 1 July snowfall T 0.0  
Since 1 September snowfall 0.0 0.0  
Snow Depth 0.00 in    
Sea Level Pressure  
Sea Level Pressure 29.74 in    
Wind  
Wind Speed 10 mph (ENE)    
Max Wind Speed 22 mph    
Max Gust Speed 27 mph    
Visibility 4 miles    
Events Fog , Rain , Thunderstorm    
T = Trace of Precipitation, MM = Missing Value Source: NWS Daily Summary

Daily Weather History Graph

Daily Weather History Graph

Search for Another Location

Airport:

Trip Planner

Search our weather history database for the weather conditions in past years. The results will help you decide how hot, cold, wet, or windy it might be!

Date:

Astronomy

Sep. 09, 2014 Rise Set
Actual Time 6:59 AM CDT 7:48 PM CDT
Civil Twilight 6:30 AM CDT 8:17 PM CDT
Nautical Twilight 5:56 AM CDT 8:51 PM CDT
Astronomical Twilight 5:20 AM CDT 9:27 PM CDT
Moon 8:05 PM CDT (9/9) 7:40 AM CDT (9/9)
Length of Visible Light 13h 46m
Length of Day
12h 48m
Waxing Gibbous, 99% of the Moon is Illuminated
Sep 9
Waxing Gibbous
Sep 15
Last Quarter
Sep 24
New
Oct 1
First Quarter
Oct 8
Full

Hourly Weather History & Observations

Time (CDT) Temp. Dew Point Humidity Pressure Visibility Wind Dir Wind Speed Gust Speed Precip Events Conditions
12:56 AM 62.1 °F 60.1 °F 93% 29.78 in 7.0 mi East 4.6 mph - N/A   Clear
1:53 AM 60.8 °F 60.8 °F 100% 29.79 in 5.0 mi East 4.6 mph - N/A   Scattered Clouds
1:56 AM 62.1 °F 61.0 °F 96% 29.78 in 4.0 mi East 4.6 mph - N/A   Mostly Cloudy
2:04 AM 62.1 °F 61.0 °F 96% 29.79 in 1.8 mi East 4.6 mph - N/A   Mostly Cloudy
2:14 AM 63.0 °F 62.1 °F 97% 29.79 in 0.5 mi East 4.6 mph - N/A Fog Fog
2:21 AM 63.0 °F 62.1 °F 97% 29.79 in 0.2 mi East 4.6 mph - N/A Fog Fog
2:56 AM 63.0 °F 62.1 °F 97% 29.77 in 0.2 mi East 4.6 mph - N/A Fog Fog
3:31 AM 64.0 °F 62.1 °F 93% 29.78 in 0.2 mi ESE 3.5 mph - N/A Fog Fog
3:48 AM 63.0 °F 62.1 °F 97% 29.79 in 0.2 mi East 3.5 mph - N/A Fog Fog
3:56 AM 64.0 °F 62.1 °F 93% 29.77 in 0.2 mi ENE 3.5 mph - N/A Fog Fog
4:56 AM 63.0 °F 62.1 °F 97% 29.77 in 0.1 mi East 4.6 mph - N/A Fog Fog
5:56 AM 62.6 °F 62.6 °F 100% 29.79 in 0.1 mi East 4.6 mph - N/A Fog Fog
6:56 AM 63.0 °F 62.1 °F 97% 29.78 in 0.1 mi East 4.6 mph - N/A Fog Fog
7:56 AM 64.0 °F 62.1 °F 93% 29.78 in 0.1 mi ENE 8.1 mph - N/A Fog Fog
8:56 AM 64.0 °F 63.0 °F 96% 29.77 in 0.1 mi East 6.9 mph - N/A Fog Fog
9:56 AM 64.9 °F 63.0 °F 93% 29.77 in 0.1 mi ENE 8.1 mph - N/A Fog Fog
10:40 AM 66.0 °F 64.0 °F 93% 29.79 in 0.1 mi ENE 9.2 mph - N/A Fog Fog
10:56 AM 66.9 °F 64.9 °F 93% 29.77 in 0.2 mi East 10.4 mph - N/A Fog Fog
10:59 AM 66.2 °F 64.4 °F 94% 29.78 in 0.5 mi East 10.4 mph - N/A Fog Fog
11:56 AM 70.0 °F 66.9 °F 90% 29.76 in 0.8 mi East 11.5 mph - N/A   Overcast
12:01 PM 70.0 °F 66.9 °F 90% 29.77 in 3.0 mi East 11.5 mph - N/A   Overcast
12:38 PM 71.1 °F 68.0 °F 90% 29.78 in 5.0 mi East 8.1 mph - N/A   Overcast
12:56 PM 71.1 °F 68.0 °F 90% 29.78 in 5.0 mi NE 6.9 mph - N/A   Overcast
1:56 PM 72.0 °F 68.0 °F 87% 29.74 in 8.0 mi ENE 11.5 mph - N/A   Overcast
2:56 PM 73.0 °F 69.1 °F 87% 29.73 in 9.0 mi East 10.4 mph - N/A   Overcast
3:56 PM 75.2 °F 69.8 °F 83% 29.71 in 10.0 mi ENE 11.5 mph - N/A   Mostly Cloudy
4:09 PM 73.9 °F 69.1 °F 85% 29.70 in 10.0 mi ENE 10.4 mph - N/A   Mostly Cloudy
4:56 PM 73.9 °F 69.1 °F 85% 29.68 in 10.0 mi ENE 10.4 mph - N/A   Overcast
5:56 PM 73.0 °F 69.1 °F 87% 29.65 in 9.0 mi East 12.7 mph - N/A   Overcast
6:05 PM 73.4 °F 69.8 °F 88% 29.67 in 9.0 mi East 11.5 mph - N/A   Overcast
6:48 PM 73.4 °F 69.8 °F 88% 29.68 in 9.0 mi ENE 15.0 mph - N/A   Overcast
6:56 PM 73.0 °F 69.1 °F 87% 29.66 in 9.0 mi ENE 10.4 mph - N/A   Overcast
7:31 PM 70.0 °F 66.0 °F 87% 29.67 in 9.0 mi North 13.8 mph 24.2 mph 0.00 in Rain Light Rain
7:36 PM 68.0 °F 64.9 °F 90% 29.67 in 10.0 mi NNW 10.4 mph 24.2 mph 0.00 in Rain Light Rain
7:56 PM 66.0 °F 63.0 °F 90% 29.66 in 9.0 mi NNE 16.1 mph 25.3 mph 0.00 in Rain , Thunderstorm Light Thunderstorms and Rain
8:03 PM 64.9 °F 63.0 °F 93% 29.67 in 1.8 mi NNE 20.7 mph 26.5 mph 0.03 in Rain , Thunderstorm Heavy Thunderstorms and Rain
8:11 PM 64.9 °F 63.0 °F 93% 29.68 in 4.0 mi NNE 17.3 mph 27.6 mph 0.15 in Rain , Thunderstorm Thunderstorms and Rain
8:21 PM 64.0 °F 63.0 °F 96% 29.70 in 2.0 mi NNE 17.3 mph - 0.20 in Rain , Thunderstorm Heavy Thunderstorms and Rain
8:31 PM 64.0 °F 62.1 °F 93% 29.71 in 2.0 mi North 17.3 mph 26.5 mph 0.45 in Rain Heavy Rain
8:38 PM 64.0 °F 62.1 °F 93% 29.71 in 1.5 mi North 18.4 mph - 0.63 in Rain Heavy Rain
8:48 PM 63.0 °F 62.1 °F 97% 29.72 in 1.5 mi North 12.7 mph 25.3 mph 0.82 in Rain , Thunderstorm Heavy Thunderstorms and Rain
8:56 PM 63.0 °F 62.1 °F 97% 29.70 in 1.8 mi North 11.5 mph 20.7 mph 0.97 in Rain , Thunderstorm Heavy Thunderstorms and Rain
9:01 PM 63.0 °F 62.1 °F 97% 29.72 in 2.0 mi NNE 8.1 mph - 0.09 in Rain , Thunderstorm Heavy Thunderstorms and Rain
9:20 PM 63.0 °F 61.0 °F 93% 29.72 in 2.0 mi ENE 10.4 mph - 0.19 in Rain Light Rain
9:56 PM 62.1 °F 60.1 °F 93% 29.71 in 10.0 mi North 15.0 mph - 0.23 in Rain Light Rain
10:05 PM 62.1 °F 60.1 °F 93% 29.72 in 10.0 mi NNE 13.8 mph 23.0 mph 0.00 in Rain Light Rain
10:56 PM 62.6 °F 60.8 °F 94% 29.74 in 9.0 mi NNE 11.5 mph - N/A Rain Light Rain
11:56 PM 60.8 °F 59.0 °F 94% 29.72 in 10.0 mi NNE 13.8 mph - N/A Rain Light Rain